Regional Weather Roundup
Issued by NWS

Home | Current Version | Previous Version | Text Only | Print | Product List | Glossary On
Versions: 1 2 3 4 5 6 7 8 9 10 11 12 13 14 15 16 17 18 19 20 21 22 23 24 25 26 27 28 29 30 31 32 33 34 35 36 37 38 39 40 41 42 43 44 45 46 47 48 49 50
000
ASUS43 KIND 301009
RWRIN

WEATHER ROUNDUP FOR INDIANA
NATIONAL WEATHER SERVICE INDIANAPOLIS IN
600 AM EDT WED JUL 30 2014

NOTE: "FAIR" INDICATES FEW OR NO CLOUDS BELOW 12,000 FEET WITH NO
SIGNIFICANT WEATHER AND/OR OBSTRUCTIONS TO VISIBILITY.

* - STATION DOES NOT REPORT WEATHER SUCH AS PRECIPITATION OR FOG.

+ - STATION NOT QUALITY CONTROLLED BY THE NATIONAL WEATHER SERVICE.
    USE DATA WITH CAUTION...ESPECIALLY DEWPOINT AND RELATIVE
    HUMIDITY OBSERVATIONS.

INZ001>003-010>013-019-020-301100-
NORTHWEST INDIANA

CITY           SKY/WX    TMP DP  RH WIND       PRES   REMARKS
GARY /AIRPORT/ PTCLDY    59  55  88 W7        30.02S
KNOX *+          N/A     51  49  92 CALM      30.01R VSB<1/4
LA PORTE +       N/A     52  52 100 CALM      30.02S FOG
MICHIGAN CITY+ FOG       54  54 100 CALM      30.02S VSB 1/2
MONTICELLO +   MOCLDY    55  55  98 CALM      30.01S
RENSSELAER +   PTCLDY    55  55 100 SW5       30.03R
VALPARAISO     CLEAR     58  55  90 W5        30.02R

$$

LMZ046-743>745-301100-
SOUTHERN LAKE MICHIGAN

STATION/POSITION TIME  TEMP WIND        PRES
                       AIR  DIR/SP/G
                 (UTC) (F)  (DEG/KT/KT) (MB)
MICHIGAN CITY    1000   65  270/  9/ 10   N/A

$$

INZ004-005-014>016-021>024-301100-
NORTH CENTRAL INDIANA

CITY           SKY/WX    TMP DP  RH WIND       PRES   REMARKS
GOSHEN         PTCLDY    58  56  93 W3        30.01R FOG
LOGANSPORT +   CLEAR     54  52  94 SW3       30.03R FOG
PERU/GRISSOM   CLEAR     56  56 100 W3        30.02R
ROCHESTER +    CLEAR     57  55  94 CALM      30.02S
SOUTH BEND     CLEAR     58  55  90 CALM      30.02R
WARSAW +       MOCLDY    57  55  94 CALM      30.01S

$$

INZ006>009-017-018-025>027-301100-
NORTHEAST INDIANA

CITY           SKY/WX    TMP DP  RH WIND       PRES   REMARKS
ANGOLA *+      PTCLDY    57  46  67 CALM      30.00S
AUBURN +       MOCLDY    59  55  88 CALM      30.01R FOG
FORT WAYNE     CLOUDY    59  57  93 SW6       30.01S
HUNTINGTON +   CLOUDY    58  57  96 W5        30.01R

$$

INZ028-029-035-036-043>045-051>053-301100-
WEST CENTRAL INDIANA

CITY           SKY/WX    TMP DP  RH WIND       PRES   REMARKS
GREENCASTLE +  PTCLDY    59  55  88 W3        30.05S
LAFAYETTE      RAIN      59  58  96 CALM      30.03R
TERRE HAUTE    CLEAR     57  54  89 SW5       30.06R

$$

INZ030>032-037>040-046>048-054>057-064-065-301100-
CENTRAL INDIANA

CITY           SKY/WX    TMP DP  RH WIND       PRES   REMARKS
CP ATTERBURY + CLEAR     55  55 100 SW3       30.05S FOG
INDIANAPOLIS   PTCLDY    57  56  96 SW6       30.03R
-EAGLE CREEK   PTCLDY    60  56  86 W5        30.03R
KOKOMO *+      CLEAR     57  55  94 W7        30.02S
MARION +       PTCLDY    54  53  97 CALM      30.02S
MT COMFORT *+  CLEAR     55 N/A N/A SW3       30.04S
SHELBYVILLE    MOCLDY    60  57  89 S3        30.04R
ZIONSVILLE +   PTCLDY    59  56  89 SW5       30.04S

$$

INZ033-034-041-042-049-050-058-059-301100-
EAST CENTRAL INDIANA

CITY           SKY/WX    TMP DP  RH WIND       PRES   REMARKS
MUNCIE         CLEAR     60  56  86 SW7       30.03R

$$

INZ060-061-067>069-081>083-085>088-301100-
SOUTHWEST INDIANA

CITY           SKY/WX    TMP DP  RH WIND       PRES   REMARKS
EVANSVILLE     CLEAR     61  57  87 W5        30.08R
WASHINGTON +   CLEAR     55  55  99 CALM      30.06S

$$

INZ062-063-066-070>080-084-089>092-301100-
SOUTH CENTRAL AND SOUTHEAST INDIANA

CITY           SKY/WX    TMP DP  RH WIND       PRES   REMARKS
BLOOMINGTON    CLEAR     60  55  83 SW5       30.06R

$$



USA.gov is the U.S. government's official web portal to all federal, state and local government web resources and services.